Overview Statistics Trail Chart Weather Telemetry Raw packets
 

This is the latest recevied weather packets stored in our database for station/object I8ZSE-10. If no packets are shown the sender has not sent any weather packets the latest 10 day(s).

<< 10 11 12 13 14 15 16 >>
Time Temp. Humidity Pressure Rain* Wind** Luminosity Snow
1788495330 18.33° C 58% - 0 mm - - -
1788494730 18.33° C 57% - 0 mm - - -
1788494130 18.33° C 57% - 0 mm - - -
1788493530 18.33° C 58% - 0 mm - - -
1788492930 18.33° C 59% - 0 mm - - -
1788492330 18.33° C 59% - 0 mm - - -
1788491730 18.89° C 56% - 0 mm - - -
1788491130 18.89° C 57% - 0 mm - - -
1788490530 18.89° C 57% - 0 mm - - -
1788489930 18.89° C 56% - 0 mm - - -
1788489330 19.44° C 55% - 0 mm - - -
1788488730 18.89° C 56% - 0 mm - - -
1788488130 19.44° C 54% - 0 mm - - -
1788487530 19.44° C 55% - 0 mm - - -
1788486930 19.44° C 54% - 0 mm - - -
1788486330 19.44° C 53% - 0 mm - - -
1788485730 19.44° C 54% - 0 mm - - -
1788485130 20° C 52% - 0 mm - - -
1788484530 20° C 52% - 0 mm - - -
1788483930 19.44° C 54% - 0 mm - - -
1788483330 20.56° C 51% - 0 mm - - -
1788482430 20.56° C 51% - 0 mm - - -
1788481830 20° C 52% - 0 mm - - -
1788481230 20.56° C 51% - 0 mm - - -
1788480630 20.56° C 51% - 0 mm - - -

* Rain latest hour (hover to see other rain measurements)
** Current wind speed in m/s (hover to see current wind gust speed)